Printer-friendly version

IAU Minor Planet Center

Minor Planet Center

MPEC 2005-N33 : 2005 NE7

The following Minor Planet Electronic Circular may be linked-to from your own Web pages, but must not otherwise be redistributed electronically.


Read MPEC 2005-N32 Read MPEC 2005-N34


M.P.E.C. 2005-N33                                Issued 2005 July 6, 11:45 UT

     The Minor Planet Electronic Circulars contain information on unusual
         minor planets and routine data on comets.  They are published
   on behalf of Commission 20 of the International Astronomical Union by the
          Minor Planet Center, Smithsonian Astrophysical Observatory,
                          Cambridge, MA 02138, U.S.A.

                  Supported in part by the Brinson Foundation
             Prepared using the Tamkin Foundation Computer Network

                              MPC@CFA.HARVARD.EDU
          URL http://cfa-www.harvard.edu/iau/mpc.html  ISSN 1523-6714

                                   2005 NE7

Observations:
     K05N07E* C2005 07 05.63666 21 26 54.16 -35 51 40.1          17.9 V EN033E12
     K05N07E  C2005 07 05.64468 21 26 55.82 -35 52 02.4          17.8 V EN033E12
     K05N07E  C2005 07 05.65290 21 26 57.58 -35 52 25.0          18.0 V EN033E12
     K05N07E 1C2005 07 05.68158 21 27 03.51 -35 53 45.2          17.8 R EN033413
     K05N07E 1C2005 07 05.68222 21 27 03.64 -35 53 46.8          17.8 R EN033413
     K05N07E 1C2005 07 05.68287 21 27 03.78 -35 53 48.5          18.0 R EN033413
     K05N07E 1C2005 07 05.68351 21 27 03.92 -35 53 50.4          17.9 R EN033413
     K05N07E  C2005 07 06.34389 21 29 33.66 -36 25 13.1          17.7 R EN033651
     K05N07E  C2005 07 06.34501 21 29 33.93 -36 25 16.3          17.6 R EN033651
     K05N07E  C2005 07 06.34611 21 29 34.17 -36 25 19.4          17.6 R EN033651
     K05N07E 5C2005 07 06.42581 21 29 51.92 -36 29 10.4          18.4 R EN033673
     K05N07E 5C2005 07 06.42789 21 29 52.37 -36 29 16.0                 EN033673
     K05N07E 5C2005 07 06.43634 21 29 54.18 -36 29 40.3                 EN033673
     K05N07E 5C2005 07 06.44201 21 29 55.47 -36 29 57.8                 EN033673

Observer details:
413 Siding Spring.  Observer R. H. McNaught.  1.0-m f/8 reflector + CCD.
651 Grasslands Observatory, Tucson.  Observer J. E. McGaha.  0.62-m f/5.1
    Newtonian reflector + CCD.
673 Table Mountain Observatory, Wrightwood.  Observer J. Young.  0.6-m
    reflector + CCD.
E12 Siding Spring Survey.  Observer E. J. Christensen.  Measurers
    E. C. Beshore, C. M. Casey, E. J. Christensen, G. J. Garradd, A. D. Grauer,
    R. E. Hill, S. M. Larson, R. H. McNaught.  0.5-m Uppsala Schmidt + CCD.

Orbital elements:
2005 NE7                                                             PHA 0.045
Epoch 2005 June 19.0 TT = JDT 2453540.5                 MPC
M 330.94419              (2000.0)            P               Q
n   0.32343331     Peri.  304.16434     +0.88717239     -0.42825045
a   2.1019041      Node    81.72869     +0.45946689     +0.78546347
e   0.6501933      Incl.    9.99950     +0.04260662     +0.44682064
P   3.05           H   18.9           G   0.15
From 14 observations 2005 July 5-6.

Ephemeris:
2005 NE7                 a,e,i = 2.10, 0.65, 10                  q = 0.7353
Date    TT    R. A. (2000) Decl.     Delta      r     Elong.  Phase     V
2005 06 29    21 06.86   -31 36.0    0.396    1.360   144.8    25.6    18.7
2005 07 09    21 40.84   -38 41.5    0.284    1.259   144.6    27.9    17.9
2005 07 19    23 00.94   -50 29.7    0.194    1.157   133.0    40.0    17.2
2005 07 29    02 55.92   -56 23.8    0.147    1.057   102.5    69.7    17.3
2005 08 08    06 03.43   -33 33.4    0.169    0.961    67.0   103.7    18.8
2005 08 18    07 06.40   -14 21.3    0.240    0.873    48.8   119.2    20.3
2005 08 28    07 39.82   -03 21.4    0.335    0.801    43.5   119.8    20.9

Timothy B. Spahr             (C) Copyright 2005 MPC           M.P.E.C. 2005-N33

Read MPEC 2005-N32 Read MPEC 2005-N34


Our Web policy. Index to the CBAT/MPC/ICQ pages.


Valid HTML 4.01!